This is the latest recevied weather packets stored in our database for station/object DC8RAI-12. If no packets are shown the sender has not sent any weather packets the latest 10 day(s).
| Time | Temp. | Humidity | Pressure | Rain* | Wind** | Luminosity | Snow |
|---|---|---|---|---|---|---|---|
| 1777663792 | 12.22° C | 52% | 1024.8 hPa | - | - | - | - |
| 1777662892 | 12.22° C | 53% | 1024.7 hPa | - | - | - | - |
| 1777661991 | 12.78° C | 51% | 1024.7 hPa | - | - | - | - |
| 1777661096 | 13.89° C | 48% | 1024.7 hPa | - | - | - | - |
| 1777660196 | 14.44° C | 47% | 1024.5 hPa | - | - | - | - |
| 1777659296 | 15° C | 45% | 1024.4 hPa | - | - | - | - |
| 1777658395 | 16.67° C | 39% | 1024.3 hPa | - | - | - | - |
| 1777657495 | 16.67° C | 38% | 1024.2 hPa | - | - | - | - |
| 1777656595 | 17.22° C | 36% | 1024.1 hPa | - | - | - | - |
| 1777655695 | 17.78° C | 36% | 1024.1 hPa | - | - | - | - |
| 1777654795 | 17.78° C | 33% | 1024 hPa | - | - | - | - |
| 1777653895 | 18.33° C | 33% | 1024.1 hPa | - | - | - | - |
| 1777652995 | 18.89° C | 32% | 1024.2 hPa | - | - | - | - |
| 1777652095 | 20° C | 30% | 1024.3 hPa | - | - | - | - |
| 1777651195 | 20.56° C | 29% | 1024.1 hPa | - | - | - | - |
| 1777650294 | 21.11° C | 27% | 1024.2 hPa | - | - | - | - |
| 1777649394 | 22.22° C | 27% | 1024.2 hPa | - | - | - | - |
| 1777648494 | 22.78° C | 26% | 1024.3 hPa | - | - | - | - |
| 1777647594 | 23.33° C | 25% | 1024.3 hPa | - | - | - | - |
| 1777646694 | 22.78° C | 23% | 1024.4 hPa | - | - | - | - |
| 1777645794 | 23.89° C | 25% | 1024.5 hPa | - | - | - | - |
| 1777644894 | 24.44° C | 26% | 1024.6 hPa | - | - | - | - |
| 1777643994 | 24.44° C | 26% | 1024.6 hPa | - | - | - | - |
| 1777643094 | 23.89° C | 22% | 1024.7 hPa | - | - | - | - |
| 1777642194 | 22.78° C | 23% | 1024.8 hPa | - | - | - | - |
* Rain since midnight (hover to see other rain measurements)
** Current wind speed in m/s (hover to see current wind gust speed)